{"data":{"norad_id":61933,"epoch":"2026-05-25T05:28:17.611104Z","epoch_age_seconds":65786,"freshness":"FRESH","line1":"1 61933U 24207X   26145.22798161  .00017817  00000+0  65512-3 0  9996","line2":"2 61933  43.0021 209.8186 0001140 278.6257  81.4466 15.27594822 86425","mean_motion":15.27594822,"eccentricity":0.000114,"inclination_deg":43.0021,"raan_deg":209.8186,"arg_perigee_deg":278.6257,"mean_anomaly_deg":81.4466,"bstar":0.00065512,"rev_number":8642,"period_min":94.265834058974,"perigee_km":482.22254384293,"apogee_km":483.78688415373,"semimajor_km":6861.1417139983,"source":"CELESTRAK","updated_at":"2026-05-25T13:38:19.485229Z"}}